[[{"header":{"parameterUnit":"m.s-1","parameterCategory":1,"la1":30.2991,"la2":30.254,"lo1":-89.0895,"lo2":-89.0444,"dy":0.0017,"dx":0.0017,"nx":28,"ny":28,"refTime":"2023-07-22T21:00:00:Z","depth":0,"parameterNumber":2,"parameterNumberName":"U-component_of_WINDS"},"data":[0,0,0,0,0,0,0,0,0,0,0,0,0,0,0,0,0,0,0,0,0,0,0,0,0,0,0,0,0,0,0,0,0,0,0,0,0,0,0,0,0,0,0,0,0,0,0,0,0,0,0,0,0,0,0,0,0,0,3.4965,3.4966,0,3.5039,3.504,3.5041,3.4954,3.4951,3.4948,3.4945,3.5019,3.5024,3.5028,0,0,0,0,0,0,0,0,0,0,0,0,0,3.4748,3.4753,3.4965,3.4966,3.4967,3.5039,3.504,3.5041,3.4955,3.4951,3.4947,3.4943,3.5017,3.5023,3.5029,0,0,0,0,0,0,0,0,0,0,0,0,0,3.4834,3.4754,3.4965,3.4933,3.4931,3.5039,3.504,3.5041,3.4956,3.4951,3.4946,3.4941,3.5015,3.5022,3.503,3.5172,0,0,3.5053,3.5056,0,0,0,0,0,0,0,0,3.483,3.4842,3.4937,3.4935,3.4933,3.4982,3.499,3.5085,3.4957,3.4946,3.4945,3.4939,3.501,3.5018,3.5042,3.5176,3.5179,3.5053,3.5058,3.5061,3.5063,0,0,0,0,0,0,0,3.4824,3.4839,3.4994,3.4938,3.4936,3.4914,3.4921,3.5008,3.5004,3.4947,3.4941,3.4951,3.5009,3.5035,3.5043,3.518,3.5053,3.506,3.5064,3.5067,3.5434,3.5439,0,0,0,0,0,0,3.4822,3.4834,3.4992,3.4996,3.4868,3.4922,3.493,3.4971,3.5003,3.5003,3.4955,3.4946,3.5025,3.5035,3.5046,3.5215,3.5061,3.5068,3.5072,3.5429,3.5436,3.5441,0,0,0,0,0,0,3.4817,3.4837,3.4989,3.4914,3.4932,3.4931,3.4978,3.4975,3.5002,3.5009,3.5008,3.4983,3.5022,3.5035,3.5142,3.5217,3.5071,3.5078,3.5423,3.5431,3.5438,3.5555,0,0,0,0,0,0,3.4812,3.4836,3.489,3.4916,3.4936,3.5085,3.4983,3.498,3.5016,3.5005,3.5035,3.5036,3.5019,3.5131,3.5149,3.5224,3.5084,3.5416,3.5427,3.5436,3.5545,3.5566,3.5585,0,0,0,0,0,3.4804,3.492,3.4893,3.4913,3.5004,3.5089,3.51,3.5079,3.5022,3.5077,3.5081,3.5035,3.5205,3.5143,3.5162,3.5241,3.5411,3.5424,3.5435,3.5536,3.5562,3.5584,0,0,0,0,0,0,3.4902,3.4922,3.4893,3.5021,3.5054,3.5074,3.5143,3.5107,3.5157,3.5145,3.5116,3.5124,3.5237,3.5249,3.5179,3.538,3.5299,3.5315,3.5369,3.5394,3.5413,3.5408,3.509,0,0,0,0,0,3.4939,3.5007,3.502,3.5131,3.5149,3.5144,3.518,3.516,3.5193,3.5207,3.5219,3.5252,3.5313,3.5354,3.541,3.5546,3.5551,3.5609,3.5629,3.5646,3.566,3.5733,3.5759,3.548,3.548,3.548,0,0,3.5015,3.5034,3.5079,3.5152,3.5175,3.5245,3.5156,3.5234,3.5286,3.5218,3.532,3.533,3.5365,3.5487,3.5541,3.5501,3.5738,3.5661,3.5674,3.568,3.5748,3.5774,3.5798,3.5488,3.5487,3.5486,0,0,3.519,3.5211,3.5306,3.5332,3.5369,3.5364,3.5387,3.5413,3.5417,3.5519,3.547,3.553,3.5636,3.5663,3.5691,3.5877,3.5836,3.5896,3.6,3.6071,3.6093,3.6112,3.6179,3.6203,3.591,3.591,3.5911,0,3.528,3.5385,3.536,3.5442,3.5475,3.5418,3.5514,3.5539,3.5593,3.5617,3.5571,3.5702,3.5722,3.5849,3.5895,3.5919,3.5944,3.5892,3.6092,3.6111,3.6129,3.6192,3.6217,3.5917,3.5917,3.5916,3.5915,0,3.5493,3.5567,3.5639,3.5693,3.5734,3.5823,3.5811,3.5856,3.5833,3.5833,3.5937,3.5959,3.6019,3.6047,3.6026,3.6172,3.6146,3.6097,3.6014,3.6163,3.6222,3.6246,3.5927,3.5925,3.5923,3.5921,0,0,3.5733,3.5772,3.5799,3.5823,3.5859,3.5915,3.6001,3.606,3.6099,3.6138,3.6209,3.63,3.6255,3.6286,3.6266,3.6329,3.6475,3.6272,3.6272,3.6309,3.6638,3.6676,3.6704,3.6448,3.6453,3.6456,3.6636,0,3.5909,3.6058,3.6038,3.6182,3.6249,3.6196,3.627,3.6301,3.6303,3.636,3.6362,3.6427,3.6362,3.6381,3.644,3.6445,3.6541,3.6432,3.6514,3.6517,3.6508,3.6735,3.6775,3.6943,3.6658,3.6662,3.6665,0,3.6134,3.6182,3.6332,3.6358,3.6386,3.6454,3.6506,3.6562,3.6595,3.6592,3.6628,3.6597,3.6682,3.6598,3.6715,3.6642,3.6674,3.6681,3.6687,3.6694,3.6601,3.6749,3.6996,3.7021,3.6701,3.6698,3.6695,0,3.6294,3.6396,3.6499,3.6521,3.6554,3.6603,3.6619,3.6647,3.6684,3.673,3.6753,3.6808,3.6839,3.6882,3.6867,3.6807,3.6987,3.6902,3.6987,3.6988,3.7028,3.7026,3.7285,3.7049,3.7048,3.7048,3.7047,0,3.6493,3.6588,3.6571,3.6635,3.6739,3.6715,3.6818,3.6827,3.6853,3.6917,3.6873,3.6934,3.6911,3.697,3.6958,3.7058,3.7071,3.7071,3.7067,3.7076,3.7076,3.7097,3.7085,3.7054,3.7053,3.7052,3.7051,0,3.669,3.6683,3.6792,3.6815,3.6822,3.6898,3.6917,3.6976,3.6975,3.7057,3.7075,3.7073,3.714,3.7129,3.7204,3.7196,3.732,3.7301,3.731,3.7305,3.7392,3.7384,3.7673,3.771,3.745,3.7453,3.7455,0,3.6818,3.6889,3.692,3.696,3.6979,3.7044,3.7082,3.7061,3.7102,3.7145,3.7199,3.7263,3.7313,3.7423,3.7428,3.7485,3.7468,3.7565,3.7476,3.7482,3.747,3.7466,3.7473,3.7583,3.7586,3.7588,3.759,0,3.7046,3.7039,3.7095,3.7151,3.7197,3.724,3.7278,3.7313,3.7295,3.7343,3.7412,3.7451,3.7527,3.7591,3.7644,3.766,3.7623,3.7618,3.7641,3.7651,3.7653,3.7653,3.7358,3.7612,3.761,3.7608,3.7607,3.7606,3.7212,3.7273,3.7304,3.7369,3.7395,3.7432,3.7489,3.7495,3.7552,3.7614,3.7597,3.7676,3.7706,3.7774,3.7795,3.7856,3.7819,3.7853,3.7861,3.787,3.788,3.7643,3.7865,3.7864,3.7864,3.7863,3.7863,0,3.7438,3.7455,3.7515,3.757,3.762,3.7581,3.7621,3.7666,3.7736,3.7768,3.7818,3.7897,3.7959,3.7969,3.8027,3.8073,3.8058,3.809,3.8086,3.809,3.7909,3.7884,3.8101,3.8101,3.8101,3.8101,3.8101,3.8101,3.7562,3.7663,3.766,3.7774,3.779,3.7867,3.7893,3.7927,3.7952,3.8043,3.8094,3.81,3.8124,3.8183,3.8238,3.8239,3.8263,3.8301,3.8296,3.8127,3.8103,3.808,3.8056,3.8307,3.8307,3.8472,3.8474,3.8475]},{"header":{"parameterUnit":"m.s-1","parameterCategory":1,"la1":30.2991,"la2":30.254,"lo1":-89.0895,"lo2":-89.0444,"dy":0.0017,"dx":0.0017,"nx":28,"ny":28,"refTime":"2023-07-22T21:00:00:Z","depth":0,"parameterNumber":3,"parameterNumberName":"V-component_of_WINDS"},"data":[0,0,0,0,0,0,0,0,0,0,0,0,0,0,0,0,0,0,0,0,0,0,0,0,0,0,0,0,0,0,0,0,0,0,0,0,0,0,0,0,0,0,0,0,0,0,0,0,0,0,0,0,0,0,0,0,0,0,-1.7141,-1.7142,0,-1.7229,-1.723,-1.7231,-1.7251,-1.725,-1.725,-1.7249,-1.7342,-1.7345,-1.7348,0,0,0,0,0,0,0,0,0,0,0,0,0,-1.6994,-1.6997,-1.7141,-1.7142,-1.7143,-1.7228,-1.723,-1.7231,-1.7251,-1.725,-1.725,-1.7249,-1.7341,-1.7345,-1.7348,0,0,0,0,0,0,0,0,0,0,0,0,0,-1.7067,-1.6997,-1.7141,-1.7163,-1.7166,-1.7228,-1.723,-1.7231,-1.7251,-1.725,-1.725,-1.7249,-1.734,-1.7344,-1.7349,-1.7395,0,0,-1.7363,-1.7365,0,0,0,0,0,0,0,0,-1.7063,-1.7073,-1.7159,-1.7162,-1.7165,-1.7228,-1.7212,-1.7286,-1.7252,-1.7219,-1.7249,-1.7248,-1.7305,-1.7312,-1.7331,-1.74,-1.7403,-1.7363,-1.7366,-1.7368,-1.7369,0,0,0,0,0,0,0,-1.7058,-1.7069,-1.7176,-1.716,-1.7164,-1.717,-1.718,-1.7226,-1.7266,-1.7222,-1.7224,-1.7234,-1.7307,-1.7326,-1.7333,-1.7405,-1.7363,-1.7367,-1.737,-1.7372,-1.7517,-1.7518,0,0,0,0,0,0,-1.7049,-1.7065,-1.7173,-1.7178,-1.7111,-1.7174,-1.7184,-1.7209,-1.7266,-1.7273,-1.7234,-1.7234,-1.7319,-1.7328,-1.7337,-1.7395,-1.7368,-1.7372,-1.7375,-1.7516,-1.7517,-1.7519,0,0,0,0,0,0,-1.7045,-1.7058,-1.7169,-1.7122,-1.7137,-1.7177,-1.7205,-1.7211,-1.7231,-1.7275,-1.7283,-1.7247,-1.7319,-1.733,-1.738,-1.7398,-1.7374,-1.7378,-1.7515,-1.7516,-1.7518,-1.7512,0,0,0,0,0,0,-1.7041,-1.7057,-1.7074,-1.7122,-1.7139,-1.721,-1.7206,-1.7213,-1.7238,-1.7239,-1.7289,-1.7296,-1.7319,-1.7374,-1.7385,-1.7404,-1.7382,-1.7513,-1.7515,-1.7517,-1.751,-1.7513,-1.7515,0,0,0,0,0,-1.7036,-1.7069,-1.7075,-1.7088,-1.7161,-1.7211,-1.7221,-1.7246,-1.724,-1.7258,-1.7286,-1.7295,-1.7395,-1.7379,-1.7392,-1.7412,-1.7512,-1.7515,-1.7517,-1.7509,-1.7512,-1.7515,0,0,0,0,0,0,-1.7023,-1.7076,-1.7082,-1.7132,-1.7167,-1.7215,-1.7238,-1.7248,-1.7286,-1.7285,-1.7315,-1.7326,-1.7375,-1.7399,-1.738,-1.7461,-1.7454,-1.7459,-1.7443,-1.7446,-1.7449,-1.7441,-1.7386,0,0,0,0,0,-1.7025,-1.7061,-1.7106,-1.7145,-1.7162,-1.7197,-1.722,-1.7236,-1.7274,-1.7289,-1.7321,-1.7358,-1.7398,-1.7424,-1.7463,-1.7515,-1.7526,-1.7536,-1.7538,-1.7539,-1.7543,-1.7573,-1.7578,-1.7527,-1.7527,-1.7527,0,0,-1.7032,-1.7065,-1.7086,-1.7144,-1.7172,-1.7209,-1.721,-1.7249,-1.7277,-1.7295,-1.7344,-1.7369,-1.7413,-1.7464,-1.7488,-1.7486,-1.756,-1.7543,-1.7544,-1.7547,-1.7576,-1.7581,-1.7585,-1.7529,-1.7528,-1.7528,0,0,-1.7062,-1.709,-1.7126,-1.7155,-1.7199,-1.7222,-1.7231,-1.7277,-1.7294,-1.7344,-1.7359,-1.7394,-1.7462,-1.7492,-1.7516,-1.7559,-1.7569,-1.7572,-1.7583,-1.7612,-1.7616,-1.762,-1.7635,-1.764,-1.7576,-1.7576,-1.7576,0,-1.7064,-1.7119,-1.7144,-1.7182,-1.7208,-1.7226,-1.7263,-1.7291,-1.7345,-1.7363,-1.7359,-1.7445,-1.7476,-1.7534,-1.7545,-1.7564,-1.7576,-1.7565,-1.7613,-1.7617,-1.7621,-1.7636,-1.7642,-1.7576,-1.7576,-1.7576,-1.7576,0,-1.712,-1.7158,-1.7183,-1.7233,-1.7262,-1.73,-1.7332,-1.7358,-1.7371,-1.7395,-1.7447,-1.7484,-1.7531,-1.7547,-1.7561,-1.7608,-1.7605,-1.7607,-1.76,-1.7625,-1.764,-1.7646,-1.7576,-1.7576,-1.7576,-1.7576,0,0,-1.7143,-1.7208,-1.7216,-1.724,-1.729,-1.732,-1.736,-1.7405,-1.7427,-1.7465,-1.7499,-1.7556,-1.7559,-1.7586,-1.7605,-1.763,-1.7662,-1.7629,-1.763,-1.7634,-1.7717,-1.7714,-1.7721,-1.7669,-1.767,-1.7671,-1.7713,0,-1.7179,-1.7248,-1.7272,-1.733,-1.7366,-1.7384,-1.7419,-1.7454,-1.7477,-1.7513,-1.754,-1.758,-1.758,-1.7597,-1.7623,-1.7652,-1.7679,-1.765,-1.7702,-1.7703,-1.7689,-1.7728,-1.7726,-1.7764,-1.7719,-1.772,-1.7721,0,-1.723,-1.7267,-1.7327,-1.7373,-1.7389,-1.742,-1.7464,-1.7497,-1.7538,-1.7553,-1.7585,-1.7601,-1.7644,-1.7635,-1.7696,-1.7675,-1.7699,-1.7717,-1.7719,-1.7724,-1.7713,-1.7734,-1.7776,-1.7782,-1.773,-1.7729,-1.7728,0,-1.724,-1.7306,-1.735,-1.737,-1.7425,-1.7446,-1.747,-1.751,-1.7536,-1.7575,-1.7592,-1.7636,-1.766,-1.7695,-1.7723,-1.7714,-1.7781,-1.7775,-1.7796,-1.7795,-1.7809,-1.7807,-1.7855,-1.7824,-1.7824,-1.7824,-1.7824,0,-1.7277,-1.7314,-1.7356,-1.7383,-1.7425,-1.7454,-1.7495,-1.752,-1.7556,-1.7589,-1.7609,-1.764,-1.7676,-1.7713,-1.7736,-1.7783,-1.7794,-1.7808,-1.7814,-1.7806,-1.7804,-1.7821,-1.7819,-1.7826,-1.7825,-1.7825,-1.7825,0,-1.7295,-1.7325,-1.7375,-1.7423,-1.7436,-1.7464,-1.7506,-1.7534,-1.7559,-1.7602,-1.7614,-1.7654,-1.7698,-1.773,-1.7788,-1.7803,-1.7853,-1.7859,-1.7839,-1.7842,-1.7862,-1.7859,-1.7921,-1.7931,-1.7894,-1.7894,-1.7894,0,-1.7317,-1.7345,-1.7396,-1.7419,-1.7443,-1.748,-1.7507,-1.7537,-1.7564,-1.7613,-1.7636,-1.7681,-1.7719,-1.7789,-1.7824,-1.7869,-1.7876,-1.7894,-1.7882,-1.7874,-1.7876,-1.7873,-1.7877,-1.7896,-1.7896,-1.7896,-1.7896,0,-1.7351,-1.7365,-1.7401,-1.7444,-1.7475,-1.751,-1.7545,-1.7564,-1.76,-1.763,-1.7675,-1.7704,-1.7763,-1.7808,-1.7856,-1.7883,-1.7896,-1.79,-1.7907,-1.7899,-1.7886,-1.7894,-1.7843,-1.7898,-1.7898,-1.7898,-1.7898,-1.7897,-1.7372,-1.7398,-1.7438,-1.7478,-1.7508,-1.7541,-1.757,-1.7598,-1.7636,-1.7685,-1.7701,-1.7748,-1.779,-1.7855,-1.7882,-1.7921,-1.792,-1.793,-1.7933,-1.7935,-1.7935,-1.7881,-1.793,-1.793,-1.793,-1.793,-1.793,0,-1.7408,-1.7434,-1.7471,-1.752,-1.7552,-1.7561,-1.7601,-1.7628,-1.7668,-1.7705,-1.7742,-1.7795,-1.7839,-1.7878,-1.7924,-1.7947,-1.7955,-1.7958,-1.7957,-1.7963,-1.7933,-1.7922,-1.7952,-1.7952,-1.7952,-1.7952,-1.7952,-1.7952,-1.743,-1.7475,-1.7493,-1.7553,-1.758,-1.7625,-1.7647,-1.7678,-1.7708,-1.7765,-1.7802,-1.7826,-1.7865,-1.7914,-1.7956,-1.7966,-1.7982,-1.7985,-1.7997,-1.7968,-1.7965,-1.7962,-1.7952,-1.7988,-1.7988,-1.8024,-1.8024,-1.8024]}]]